325  
ASUS44 KLIX 261806  
RWRLIX  
NEW ORLEANS REGIONAL WEATHER ROUNDUP  
NATIONAL WEATHER SERVICE NEW ORLEANS LA  
100 PM CDT THU APR 26 2018  
 
NOTE: "FAIR" INDICATES FEW OR NO CLOUDS BELOW 12,000 FEET WITH NO  
SIGNIFICANT WEATHER AND/OR S TO VISIBILITY
.  
SKY/WX - SKY CONDITION AND SIGNIFICANT WEATHER.  
TMP - AIR TEMPERATURE. DP - DEWPOINT TEMPERATURE.  
RH - RELATIVE HUMIDITY. PRES - PRESSURE.  
HI - HEAT INDEX. WCI - WIND CHILL INDEX.  
 
* THESE STATIONS ARE NOT NWS OR FAA STATIONS AND ARE NOT UNDER  
NWS QUALITY CONTROL.  
 
LAZ038-040-048-061>063-065>067-069-261900-  
SOUTHEAST LOUISIANA  
 
CITY SKY/WX TMP DP RH WIND PRES REMARKS
 
N.O. INTL ARPT FAIR 72 55 55 NW10 29.91F  
6HR MIN TEMP: 62; 6HR MAX TEMP: 72; 6HR PCP: 0.03;  
 
N.O. LAKEFRONT FAIR 69 56 62 NW15 29.92F  
6HR MIN TEMP: 64; 6HR MAX TEMP: 70; 6HR PCP: 0.03;  
 
N.O. DOWNTOWN* FAIR 72 55 55 VRB6 29.92F  
6HR MIN TEMP: 62; 6HR MAX TEMP: 72; 6HR PCP: 0.12;  
 
RESERVE* FAIR 75 49 39 NW10 29.92F  
6HR MIN TEMP: 62; 6HR MAX TEMP: 76; 6HR PCP: 0.01;  
 
SLIDELL FAIR 71 53 52 NW9 29.90F  
6HR MIN TEMP: 62; 6HR MAX TEMP: 71; 6HR PCP: 0.07;  
 
BATON ROUGE FAIR 65 48 54 W9 29.96F  
6HR MIN TEMP: 57; 6HR MAX TEMP: 66;  
 
BOOTHVILLE PTSUNNY 73 65 75 W14 29.92F HAZE  
6HR MIN TEMP: 66; 6HR MAX TEMP: 74; 6HR PCP: 0.03;  
 
BELLE CHASSE FAIR 72 58 61 NW10 29.91F  
6HR MIN TEMP: 61; 6HR MAX TEMP: 72; 6HR PCP: TRACE;  
 
BOGALUSA* MOCLDY 69 52 54 NW13 29.92F  
6HR MIN TEMP: 61; 6HR MAX TEMP: 69;  
 
GALLIANO* FAIR 72 56 57 W12 29.92F  
6HR MIN TEMP: 62; 6HR MAX TEMP: 72; 6HR PCP: 0.13;  
 
NEW ROADS* FAIR 64 52 64 NW12 29.97F  
6HR MIN TEMP: 56; 6HR MAX TEMP: 64;  
 
GONZALES* FAIR 68 52 56 NW9 29.93F  
6HR MIN TEMP: 60; 6HR MAX TEMP: 68;  
 
HAMMOND* FAIR 68 52 56 NW10G21 29.93F  
HOUMA* SUNNY 73 52 46 W10 29.93F  
PORT FOURCHON* PTCLDY 68 61 77 NW9G16 29.93F  
 

 
 
MSZ070-080>082-261900-  
SOUTHERN MISSISSIPPI  
 
CITY SKY/WX TMP DP RH WIND PRES REMARKS
 
MCCOMB FAIR 66 48 52 W12G17 29.94S  
6HR MIN TEMP: 58; 6HR MAX TEMP: 67;  
 
GULFPORT FAIR 74 56 53 NW10 29.88F  
6HR MIN TEMP: 64; 6HR MAX TEMP: 74; 6HR PCP: 0.04;  
 
BILOXI NOT AVBL  
PASCAGOULA FAIR 74 57 55 VRB7 29.87F  
6HR MIN TEMP: 65; 6HR MAX TEMP: 74; 6HR PCP: TRACE;  
 
STENNIS ARPT* MOSUNNY 72 55 56 NW8 29.90F  
 

 
 
COASTAL OBSERVATIONS  
LAKE AND NEARSHORE STATIONS  
 
STATION/POSITION TIME SKY/WX TEMP WIND PRES WAVE
 
AIR SEA DIR/SP/G HT/PER  
(UTC) (F) (DEG/KT/KT) (MB) (FT/S)  
WAVELAND YACHT 1748 69 72 280/ 7/ 14 1012.3  
GRAND ISLE 1748 67 73 290/ 9/ 10 1013.2  
SOUTHWEST PASS 1748 69 60 310/ 13/ 18 1013.7  
NEW CANAL 1748 67 73 310/ 4/ 8 1013.2  
SHELL BEACH 1748 66 76 310/ 13/ 16 1013.0  
 
OFFSHORE STATIONS  
 
STATION/POSITION TIME SKY/WX TEMP WIND PRES WAVE
 
AIR SEA DIR/SP/G HT/PER  
(UTC) (F) (DEG/KT/KT) (MB) (FT/S)  
64 S DAUPHIN ISL 1750 73 250/ 12/ 14 1012.6 3/ 4  
 

 
 
 
 
CLICK HERE TO GO TO PREVIOUS BULLETINS.

The Nexlab LA Page
The Nexlab MS Page Main Text Page